Starlink 32552

operational
NORAD ID: 62174 Int'l Des: 2024-225 Owner: SPXS Country: US Constellation: starlink
LEOCIRCULAR

About Starlink 32552

Description loading...

Live Position

Loading 3D Globe...

Upcoming Passes

Altitude History

Altitude vs Time

uPlot chart will show altitude changes over time

Two-Line Element Set

1 62174U 24225M 25304.81371113 .00005252 00000-0 44737-3 0 9996
2 62174 69.9997 129.2820 0003199 276.1818 83.8977 14.98350292 50572
Epoch: Oct 31, 2025 • Age: 16 hours

Current Status

Altitude 584.6 km
Velocity 7.57 km/s
Sub-Earth Point 64.95°N, 40.93°W
Launch Date Nov 30, 2024
Age 0.9 years
Type internet

Technical Details

Classification Payload
Mass 730.00 kg
Dry Mass 700.00 kg
Total Mass 730.00 kg
Length 0.30 m
Diameter 4.10 m
Span 29.00 m
Shape Box + pan
Manufacturer SPXS
Bus Type Starlink V2M
Phase Status In Orbit
Owner/State SPXS/US

Large Constellations

Loading constellations...